Wind_Speed
14 15 15 15 16 17 18 18 19 18 19 19 21 22 22 23 22 22 22 22 22 23 24 24 24 23 23 23 23 23 23 22 22 22 23 23 23 24 23 23 24 24 25 27
15 16 17 17 17 18 19 19 20 20 20 21 23 23 24 24 23 23 23 23 23 23 23 23 22 22 21 22 22 22 22 22 22 23 23 23 23 23 24 24 24 25 26 27
18 18 19 19 19 20 20 21 22 22 21 23 23 23 24 25 24 24 23 23 22 21 21 21 21 20 20 20 21 22 23 23 23 23 23 23 22 23 23 24 25 26 26 27
21 21 21 21 21 22 22 23 24 23 23 23 23 23 23 24 24 24 23 22 21 21 22 21 21 21 21 21 21 22 22 22 22 22 22 22 23 24 24 24 25 26 27 29
23 24 23 23 23 24 24 24 24 24 24 24 24 23 24 25 24 24 24 23 23 22 22 22 22 22 22 22 22 22 22 23 23 22 22 23 23 23 24 25 26 27 28 29
25 26 26 25 26 26 26 25 25 25 25 25 25 25 25 25 25 24 24 24 24 24 24 24 24 24 24 24 23 23 23 24 24 24 25 24 25 25 26 27 28 28 29 30
27 28 27 27 27 27 27 28 27 27 27 26 26 27 26 25 24 24 25 25 25 25 25 25 25 25 25 24 24 24 25 25 25 25 26 26 26 27 27 28 29 30 30 30
29 30 28 28 29 29 29 29 29 29 29 28 28 28 27 26 26 26 26 26 26 25 25 25 25 25 25 25 26 25 26 27 27 28 28 29 29 29 29 29 29 30 30 30
31 31 30 30 30 31 31 31 31 30 30 30 30 29 29 28 27 27 27 27 27 26 26 26 26 26 26 27 27 27 27 28 29 29 29 29 30 30 30 29 29 29 29 29
34 32 32 32 32 32 32 33 33 32 31 31 31 30 30 29 28 29 29 28 28 28 27 27 28 28 28 29 29 29 30 30 29 29 29 29 29 29 29 28 28 28 28 29
36 34 34 34 34 34 34 34 34 33 33 32 32 31 30 30 30 30 30 29 29 29 29 29 29 29 30 30 31 31 30 30 29 29 29 29 29 28 28 28 29 29 29 30
37 36 37 36 35 35 35 35 35 34 34 33 33 31 31 31 31 31 31 30 30 30 30 31 31 31 31 31 31 30 29 29 29 29 29 29 29 28 28 29 30 31 31 32
38 38 38 37 37 37 36 36 36 36 35 34 33 33 32 32 32 32 32 31 31 31 31 32 32 32 32 31 31 30 29 29 29 29 29 29 29 29 29 30 31 32 32 33
38 38 38 37 37 37 37 37 37 36 35 35 34 33 33 33 33 33 33 33 32 32 32 33 33 33 33 32 31 30 30 31 30 30 30 30 30 31 31 31 32 32 33 34
38 39 38 38 38 37 37 37 37 36 36 35 34 34 34 34 34 33 33 33 33 33 33 34 34 34 33 33 32 32 32 32 31 31 31 31 31 32 32 33 34 34 35 35
38 38 38 38 38 38 37 37 37 36 35 35 34 34 34 33 33 33 33 34 34 34 34 34 34 34 33 33 33 33 33 32 32 32 32 33 33 34 34 35 35 36 36 37
37 36 36 36 36 36 36 36 36 36 35 35 35 34 34 33 33 33 34 35 35 35 35 35 34 34 34 34 33 33 33 33 34 34 34 35 35 36 36 36 37 37 38 38
36 36 35 35 35 35 35 35 35 35 36 35 34 34 34 34 34 34 35 35 36 36 36 36 35 35 34 34 34 34 34 34 35 35 36 36 37 37 38 38 38 38 39 39
35 34 34 34 35 34 34 35 35 35 35 35 34 35 35 35 35 35 36 36 36 36 36 36 35 35 35 35 34 35 35 36 36 37 37 37 38 39 39 39 39 39 39 39
34 34 35 35 35 34 34 35 35 35 35 35 35 35 35 35 36 36 36 36 36 36 36 36 36 36 36 35 35 35 36 36 37 37 38 38 39 40 40 40 39 40 40 40
35 35 35 35 35 35 35 35 35 35 35 35 35 35 36 36 36 36 35 35 35 35 35 35 36 36 36 36 36 36 36 37 37 37 38 39 39 39 39 39 39 40 40 40
36 36 36 36 36 35 35 36 36 36 35 36 36 36 36 36 36 36 35 35 35 35 35 35 35 35 35 36 36 36 36 37 37 38 38 39 39 39 39 40 40 40 40 40
38 38 37 37 37 37 37 37 37 36 36 36 36 36 35 35 35 35 35 35 35 35 35 35 35 36 36 36 37 37 37 37 38 38 38 38 38 38 39 39 39 39 39 39
38 38 38 39 38 38 37 38 38 37 36 36 36 36 36 36 35 35 35 34 35 35 35 35 36 36 36 37 37 37 37 37 37 38 38 38 38 38 38 38 38 38 39 39
39 39 39 39 39 39 39 39 39 39 38 37 37 37 37 37 36 35 35 34 34 35 35 35 36 36 36 36 36 36 36 36 37 37 37 37 37 38 38 38 38 38 38 38
40 40 40 39 39 39 39 39 39 39 39 39 39 38 37 37 36 36 35 35 35 35 35 35 36 36 35 35 35 35 36 36 35 35 36 36 36 37 37 37 37 37 37 37
40 39 39 39 38 38 38 38 38 38 38 38 37 36 36 35 35 35 35 34 34 34 34 34 34 34 34 33 34 34 34 34 34 34 35 35 36 36 36 36 36 36 35 35
Wind_Direction
296 292 290 288 286 285 287 288 288 289 289 288 287 288 288 288 288 289 290 291 291 291 292 292 291 290 289 289 290 291 291 291 292 291 288 285 281 277 274 272 270 270 270 266
293 292 290 289 288 287 288 288 289 289 290 288 289 290 289 287 286 288 289 289 291 291 291 293 293 292 290 289 288 290 292 291 292 291 288 287 283 277 274 273 273 273 273 271
291 289 290 289 288 287 287 288 289 290 290 288 290 291 290 288 286 286 286 287 288 290 291 294 295 296 294 292 290 291 292 293 291 289 286 285 283 278 277 276 277 276 273 272
291 289 290 292 290 289 288 288 289 289 288 289 290 292 292 290 288 287 285 284 286 289 292 294 296 297 298 296 293 292 292 292 293 292 289 286 285 282 277 277 277 278 276 275
293 290 291 291 291 290 289 288 288 288 287 289 291 292 293 292 289 288 286 285 287 289 290 291 293 294 296 296 295 294 294 294 293 292 292 290 289 286 280 278 279 279 278 279
292 291 292 294 292 291 291 289 288 288 288 289 291 292 293 291 290 289 288 287 286 287 288 289 290 291 292 293 294 294 295 294 292 291 290 289 289 286 283 281 281 281 281 282
290 290 293 293 292 292 291 290 289 288 288 289 291 292 293 291 289 289 289 287 284 284 285 287 288 289 290 292 292 294 295 296 293 292 291 290 288 287 286 285 284 284 284 283
287 289 293 291 291 290 290 289 288 287 288 289 290 291 291 289 288 288 289 287 284 283 284 285 287 288 290 292 292 293 294 295 295 293 291 291 289 288 287 287 287 286 285 283
286 289 289 288 288 288 287 288 287 287 288 289 289 289 288 287 286 286 287 286 284 283 282 283 284 286 288 290 291 292 293 294 295 294 293 292 290 290 289 288 288 288 286 284
284 286 284 284 285 286 286 285 285 286 287 287 287 288 287 286 285 284 285 285 284 282 281 281 283 285 287 289 290 291 292 293 294 293 293 293 293 292 291 290 290 289 288 287
281 282 281 281 282 284 284 284 284 285 285 285 286 287 286 286 285 284 284 284 283 282 281 281 283 286 287 288 289 291 292 292 292 293 293 293 293 291 291 290 291 291 291 291
282 280 280 280 281 282 283 284 284 284 284 283 284 285 284 285 285 285 285 285 284 283 282 282 284 286 287 289 290 290 290 290 290 291 291 292 291 291 291 291 292 292 292 292
280 279 278 279 280 282 282 283 283 284 284 283 283 283 283 283 284 285 285 285 285 284 284 283 284 286 287 289 289 289 288 288 289 290 290 290 290 290 291 291 292 293 293 292
279 279 278 278 279 280 280 281 282 284 284 283 283 283 282 282 283 285 285 284 284 284 284 284 284 285 286 286 287 287 287 287 288 289 289 289 290 290 290 291 292 293 293 293
278 278 278 277 277 279 279 280 281 282 283 282 282 282 282 282 283 283 283 283 284 284 284 284 284 283 283 283 283 285 286 287 287 288 289 289 289 289 289 290 291 291 293 293
276 277 277 277 279 280 280 280 280 282 282 282 282 282 281 282 282 282 283 283 284 283 283 283 283 283 282 282 283 283 284 286 287 288 288 288 288 288 289 289 290 291 292 292
276 276 276 277 280 281 281 280 280 281 281 281 281 281 281 281 281 282 282 283 283 283 283 283 282 282 282 282 283 283 284 285 286 287 288 288 288 288 289 289 289 290 291 291
275 275 276 277 279 281 282 282 281 281 281 281 281 281 282 281 280 280 281 282 283 282 282 281 281 280 281 282 284 284 284 285 286 287 288 288 289 289 289 289 289 289 290 291
274 275 276 278 280 281 282 282 282 282 281 281 282 282 282 281 281 280 281 281 282 282 282 281 280 279 280 282 283 284 285 286 287 288 288 289 289 289 289 288 288 288 289 291
274 275 277 279 280 281 282 282 282 282 282 282 283 283 283 283 282 281 281 282 283 283 282 281 280 279 280 282 283 284 286 287 287 288 289 289 289 289 289 289 288 288 289 291
273 275 278 279 281 281 282 284 284 283 283 283 284 283 283 283 282 282 283 284 284 285 284 283 283 282 282 283 283 285 286 287 288 289 289 290 290 289 289 289 289 289 290 291
273 274 276 278 280 280 281 283 284 284 284 284 285 284 284 284 283 283 284 285 284 285 285 285 284 284 284 284 285 286 287 288 288 289 290 291 291 290 290 290 290 290 291 291
271 273 275 277 279 280 281 283 284 284 283 284 285 285 285 284 283 283 284 284 284 284 285 285 285 284 285 285 286 287 287 288 289 289 290 291 291 291 291 291 291 291 292 292
271 272 275 277 278 280 281 281 282 282 282 282 283 284 285 284 283 283 284 285 285 285 285 285 285 285 285 286 286 287 288 289 289 289 290 290 291 291 292 292 292 292 292 293
272 272 275 277 278 279 280 280 280 280 280 280 281 283 284 284 284 284 284 285 285 286 286 286 286 287 287 286 286 287 287 288 289 290 291 291 292 292 292 293 293 293 294 294
272 273 275 277 279 280 280 280 280 279 279 279 280 281 282 282 283 283 284 285 285 286 287 287 287 287 287 287 287 287 288 289 290 291 292 293 294 294 294 294 294 294 295 295
270 272 274 276 277 278 279 279 280 280 281 281 279 279 279 281 282 283 284 285 286 287 288 288 288 288 288 288 288 288 288 289 291 292 294 295 295 296 296 296 295 295 295 295
Height
5666 5664 5663 5662 5661 5659 5658 5657 5656 5655 5654 5653 5650 5648 5647 5646 5644 5643 5641 5639 5637 5636 5634 5632 5630 5628 5626 5624 5622 5620 5617 5616 5614 5612 5610 5609 5608 5607 5606 5606 5606 5606 5606 5607
5663 5661 5659 5658 5657 5655 5653 5652 5651 5650 5649 5647 5645 5643 5641 5639 5638 5637 5635 5633 5631 5629 5627 5625 5623 5621 5619 5617 5615 5614 5612 5609 5607 5606 5604 5602 5601 5600 5600 5599 5599 5599 5599 5599
5659 5657 5655 5655 5654 5651 5649 5648 5646 5644 5644 5641 5640 5637 5635 5633 5632 5630 5629 5627 5625 5623 5621 5619 5618 5615 5613 5611 5609 5607 5606 5604 5601 5600 5598 5596 5595 5594 5593 5593 5592 5592 5592 5592
5654 5654 5651 5653 5649 5646 5644 5643 5641 5639 5637 5635 5634 5632 5629 5627 5625 5624 5622 5621 5619 5618 5616 5614 5612 5610 5608 5606 5603 5601 5599 5597 5595 5593 5591 5590 5588 5587 5586 5586 5585 5585 5584 5584
5648 5646 5646 5646 5643 5640 5639 5638 5635 5633 5631 5629 5627 5626 5624 5621 5619 5617 5615 5614 5613 5611 5609 5608 5606 5604 5602 5600 5597 5595 5593 5591 5589 5587 5585 5583 5582 5580 5579 5578 5577 5576 5575 5574
5642 5640 5639 5641 5637 5633 5633 5631 5629 5626 5625 5623 5621 5620 5619 5615 5613 5611 5609 5607 5606 5604 5603 5601 5599 5597 5595 5593 5591 5589 5587 5584 5582 5580 5578 5576 5575 5573 5572 5570 5569 5567 5566 5564
5635 5632 5633 5633 5630 5627 5627 5625 5622 5619 5618 5616 5614 5613 5611 5609 5607 5605 5603 5601 5599 5597 5596 5594 5592 5590 5588 5586 5584 5582 5579 5577 5575 5572 5570 5569 5567 5565 5563 5561 5559 5558 5556 5554
5628 5626 5628 5625 5622 5620 5619 5616 5614 5612 5610 5609 5607 5605 5603 5601 5600 5598 5596 5594 5592 5590 5588 5586 5584 5583 5581 5579 5576 5574 5572 5569 5567 5564 5562 5560 5558 5556 5554 5552 5550 5548 5546 5545
5621 5622 5619 5616 5613 5611 5609 5608 5606 5604 5602 5601 5599 5597 5596 5594 5592 5590 5588 5586 5584 5582 5581 5579 5577 5575 5573 5571 5568 5566 5563 5560 5558 5555 5553 5550 5548 5546 5545 5543 5541 5539 5537 5536
5611 5612 5610 5607 5604 5602 5600 5598 5597 5595 5594 5592 5590 5589 5587 5585 5584 5582 5580 5578 5576 5574 5572 5571 5569 5566 5564 5562 5559 5557 5554 5551 5549 5546 5544 5541 5539 5537 5535 5534 5532 5530 5529 5527
5601 5601 5599 5598 5595 5593 5591 5589 5587 5586 5584 5583 5581 5580 5578 5576 5575 5573 5571 5569 5567 5565 5564 5562 5560 5558 5555 5553 5550 5547 5544 5542 5539 5537 5535 5533 5531 5529 5527 5526 5524 5522 5520 5518
5591 5590 5587 5587 5585 5583 5581 5580 5578 5576 5575 5573 5572 5570 5569 5567 5565 5564 5562 5560 5558 5556 5555 5553 5551 5548 5546 5543 5540 5537 5535 5533 5531 5529 5527 5525 5523 5521 5519 5518 5516 5514 5512 5510
5579 5578 5576 5576 5575 5573 5571 5570 5568 5566 5565 5564 5563 5561 5559 5558 5556 5554 5552 5551 5549 5547 5545 5543 5541 5538 5536 5534 5531 5529 5526 5524 5523 5521 5519 5517 5515 5513 5511 5509 5507 5505 5502 5500
5567 5566 5565 5565 5564 5562 5560 5559 5558 5556 5555 5554 5552 5551 5550 5548 5546 5544 5543 5541 5539 5537 5535 5533 5531 5529 5526 5524 5522 5520 5518 5516 5514 5512 5510 5508 5506 5504 5502 5500 5498 5496 5493 5490
5556 5555 5554 5554 5553 5552 5550 5548 5547 5546 5545 5543 5542 5540 5539 5538 5536 5534 5533 5531 5529 5527 5525 5523 5521 5519 5516 5515 5513 5511 5509 5507 5505 5503 5501 5499 5497 5495 5493 5491 5489 5486 5484 5481
5545 5544 5543 5542 5542 5541 5539 5538 5537 5536 5534 5533 5532 5530 5528 5527 5526 5524 5523 5521 5519 5517 5515 5513 5511 5509 5507 5505 5503 5502 5500 5498 5496 5494 5492 5490 5488 5486 5484 5481 5479 5476 5474 5471
5533 5533 5532 5531 5531 5529 5528 5527 5526 5525 5524 5522 5521 5520 5518 5517 5515 5514 5512 5510 5508 5506 5504 5502 5500 5498 5497 5495 5494 5492 5490 5488 5486 5484 5482 5480 5478 5475 5473 5471 5469 5466 5463 5460
5522 5521 5521 5521 5520 5519 5518 5516 5515 5514 5513 5512 5510 5509 5508 5506 5504 5503 5501 5500 5497 5495 5493 5491 5489 5488 5486 5485 5483 5481 5479 5477 5476 5474 5471 5469 5467 5464 5462 5460 5457 5455 5452 5449
5511 5510 5510 5509 5509 5508 5507 5506 5504 5503 5502 5501 5500 5498 5497 5495 5493 5492 5491 5489 5486 5484 5482 5480 5478 5477 5476 5474 5472 5471 5469 5467 5465 5463 5460 5458 5456 5453 5450 5448 5445 5443 5440 5437
5500 5500 5499 5498 5498 5497 5496 5495 5494 5493 5491 5490 5489 5487 5486 5484 5482 5481 5480 5478 5476 5473 5471 5469 5467 5466 5465 5463 5462 5460 5458 5456 5454 5451 5449 5447 5444 5441 5438 5436 5433 5431 5428 5425
5489 5489 5488 5488 5487 5486 5485 5484 5483 5482 5480 5479 5477 5476 5474 5473 5471 5470 5469 5467 5465 5462 5460 5458 5457 5455 5454 5452 5450 5449 5447 5445 5442 5440 5437 5435 5432 5429 5427 5424 5421 5419 5416 5413
5479 5478 5478 5477 5477 5476 5475 5473 5472 5471 5470 5468 5466 5465 5463 5462 5460 5459 5457 5456 5454 5452 5450 5448 5446 5444 5442 5441 5439 5437 5435 5433 5431 5428 5426 5423 5420 5418 5415 5412 5409 5406 5404 5401
5468 5467 5467 5466 5466 5465 5464 5463 5461 5459 5458 5457 5455 5453 5451 5450 5448 5447 5446 5444 5442 5441 5439 5437 5435 5433 5431 5429 5427 5425 5423 5421 5419 5417 5414 5411 5409 5406 5403 5400 5397 5394 5392 5389
5456 5456 5455 5455 5454 5453 5452 5451 5449 5448 5446 5445 5444 5442 5440 5439 5437 5436 5434 5433 5431 5429 5427 5425 5424 5421 5419 5417 5415 5413 5412 5409 5407 5405 5403 5400 5397 5394 5391 5389 5386 5383 5380 5377
5443 5443 5443 5442 5442 5441 5440 5438 5437 5436 5434 5433 5432 5431 5429 5427 5426 5424 5423 5421 5419 5418 5416 5414 5412 5410 5408 5406 5404 5402 5400 5398 5396 5394 5391 5388 5386 5383 5380 5377 5374 5371 5368 5365
5431 5431 5430 5430 5429 5428 5427 5426 5425 5424 5422 5421 5420 5419 5417 5415 5414 5412 5411 5409 5408 5406 5404 5403 5401 5399 5397 5395 5393 5391 5389 5387 5385 5382 5380 5377 5374 5371 5368 5365 5362 5359 5356 5353
5418 5418 5417 5417 5417 5415 5414 5413 5412 5411 5409 5408 5407 5406 5405 5404 5402 5401 5399 5398 5396 5395 5393 5392 5390 5388 5386 5384 5382 5380 5378 5376 5374 5372 5369 5366 5363 5360 5357 5354 5351 5348 5345 5342